Location: ????????
(55.8351°N, 38.7040°E)
Time: 17:32:18
(UTC+00:00)

CZ-2C R/B - Pass Details

Date: 14 April 2024
Orbit: 783 x 869 km, 98.3° (Epoch: 24 May)

Event Time Altitude Azimuth Distance (km) Brightness Sun altitude
Exits shadow 01:31:36 - 249° (WSW) 2,585 4.6 -7.3°
Reaches altitude 10° 01:32:22 10° 257° (WSW) 2,460 4.5 -7.2°
Maximum altitude 01:34:27 12° 279° (W) 2,301 4.5 -6.9°
Drops below altitude 10° 01:36:32 10° 302° (WNW) 2,444 4.8 -6.7°
Sets 01:40:36 0° 333° (NNW) 3,361 5.8 -6.2°
